カタログに戻る

CANX-4

運用中科学SSO
NORAD 40055·PAYLOAD·🇨🇦 Canada

打ち上げ Jun 30, 2014 から Satish Dhawan Space Centre

Loading…

次のパス (今後24時間)

TLE

最新Source: Space-Track

元期: Sep 14, 2026, 02:41 UTC

1 40055U 14034C   26257.11198690  .00000671  00000-0  92968-4 0  9995
2 40055  98.2966 135.6303 0014055  85.3763 274.9053 14.81393410657691

AllMySatでCANX-4をリアルタイム追跡

Download on the App Store